Harlingen, TX

10:46 AM CDT on March 26, 2017 (GMT -0500)
Valley International

Weather History for KHRL - March, 2013

Change the Weather History Date:

Saturday, March 2, 2013

  Actual Average Record
Temperature  
Mean Temperature 58 °F 66 °F  
Max Temperature 73 °F 77 °F 97 °F (1999)
Min Temperature 42 °F 55 °F 29 °F (1946)
Degree Days  
Heating Degree Days 7 3  
Month to date heating degree days 10 6  
Since 1 July heating degree days 358 574  
Cooling Degree Days 0 4  
Month to date cooling degree days 0 8  
Year to date cooling degree days 194 133  
Growing Degree Days 8 (Base 50)    
Moisture  
Dew Point 32 °F    
Average Humidity 43    
Maximum Humidity 70    
Minimum Humidity 15    
Precipitation  
Precipitation 0.00 in 0.04 in 0.63 in (1950)
Month to date precipitation 0.00 0.08  
Year to date precipitation 2.74 2.55  
Sea Level Pressure  
Sea Level Pressure 30.31 in    
Wind  
Wind Speed 12 mph (NNW)    
Max Wind Speed 22 mph    
Max Gust Speed 37 mph    
Visibility 10 miles    
Events      
T = Trace of Precipitation, MM = Missing Value Source: NWS Daily Summary

Daily Weather History Graph

Daily Weather History Graph

Search for Another Location

Airport or City:

Trip Planner

Search our weather history database for the weather conditions in past years. The results will help you decide how hot, cold, wet, or windy it might be!

Date:

Astronomy

Mar. 02, 2013 Rise Set
Actual Time 6:52 AM CST 6:32 PM CST
Civil Twilight 6:29 AM CST 6:55 PM CST
Nautical Twilight 6:02 AM CST 7:22 PM CST
Astronomical Twilight 5:36 AM CST 7:49 PM CST
Moon 11:37 PM CST (3/2) 9:55 AM CST (3/2)
Length of Visible Light 12h 26m
Length of Day
11h 39m
Waning Gibbous, 74% of the Moon is Illuminated
Mar 2
Waning Gibbous
Mar 4
Last Quarter
Mar 11
New
Mar 19
First Quarter
Mar 27
Full

Hourly Weather History & Observations

Time (CST) Temp. Windchill Dew Point Humidity Pressure Visibility Wind Dir Wind Speed Gust Speed Precip Events Conditions
12:52 AM 55.9 °F - 44.1 °F 64% 30.24 in 10.0 mi WSW 16.1 mph 36.8 mph N/A   Clear
1:52 AM 55.0 °F - 39.9 °F 57% 30.25 in 10.0 mi West 10.4 mph - N/A   Clear
2:52 AM 53.1 °F - 34.0 °F 48% 30.25 in 10.0 mi WSW 11.5 mph - N/A   Clear
3:52 AM 48.0 °F - 32.0 °F 54% 30.24 in 10.0 mi West 5.8 mph - N/A   Clear
4:52 AM 46.0 °F 42.5 °F 30.9 °F 56% 30.26 in 10.0 mi WNW 6.9 mph - N/A   Clear
5:52 AM 42.1 °F 37.1 °F 30.9 °F 65% 30.29 in 10.0 mi NW 8.1 mph - N/A   Clear
6:52 AM 43.0 °F 37.7 °F 33.1 °F 68% 30.32 in 10.0 mi NNW 9.2 mph - N/A   Clear
7:52 AM 48.0 °F - 37.9 °F 68% 30.35 in 10.0 mi NNW 8.1 mph - N/A   Clear
8:52 AM 57.9 °F - 34.0 °F 41% 30.39 in 10.0 mi North 15.0 mph - N/A   Clear
9:52 AM 63.0 °F - 28.0 °F 27% 30.40 in 10.0 mi NNE 18.4 mph 24.2 mph N/A   Clear
10:52 AM 66.0 °F - 25.0 °F 21% 30.40 in 10.0 mi North 17.3 mph - N/A   Clear
11:52 AM 68.0 °F - 24.1 °F 19% 30.39 in 10.0 mi North 18.4 mph - N/A   Clear
12:52 PM 70.0 °F - 24.1 °F 18% 30.36 in 10.0 mi NW 15.0 mph 20.7 mph N/A   Clear
1:52 PM 70.0 °F - 24.1 °F 18% 30.32 in 10.0 mi NNW 11.5 mph 23.0 mph N/A   Clear
2:52 PM 73.0 °F - 23.0 °F 15% 30.30 in 10.0 mi NNW 17.3 mph 26.5 mph N/A   Clear
3:52 PM 73.0 °F - 23.0 °F 15% 30.27 in 10.0 mi NNW 15.0 mph 24.2 mph N/A   Clear
4:52 PM 71.1 °F - 23.0 °F 16% 30.26 in 10.0 mi North 17.3 mph 24.2 mph N/A   Clear
5:52 PM 63.0 °F - 36.0 °F 37% 30.27 in 10.0 mi ENE 16.1 mph - N/A   Clear
6:52 PM 57.0 °F - 36.0 °F 45% 30.29 in 10.0 mi ENE 12.7 mph - N/A   Clear
7:52 PM 52.0 °F - 35.1 °F 53% 30.30 in 10.0 mi East 6.9 mph - N/A   Clear
8:52 PM 51.1 °F - 36.0 °F 56% 30.31 in 10.0 mi ESE 6.9 mph - N/A   Clear
9:52 PM 48.0 °F - 36.0 °F 63% 30.32 in 10.0 mi SE 8.1 mph - N/A   Clear
10:52 PM 46.0 °F 43.9 °F 36.0 °F 68% 30.32 in 10.0 mi South 4.6 mph - N/A   Clear
11:52 PM 44.6 °F 40.7 °F 37.4 °F 76% 30.31 in 10.0 mi South 6.9 mph - N/A   Clear